Time,TemperatureF,DewpointF,PressureIn,WindDirection,WindDirectionDegrees,WindSpeedMPH,WindSpeedGustMPH,Humidity,HourlyPrecipIn,Conditions,Clouds,dailyrainin,SoftwareType,DateUTC
2013-07-13 00:22:00,59.0,58.0,30.07,South,183,2.0,5.0,96,0.00,,,0.21,,2013-07-13 04:22:00,
2013-07-13 00:32:00,59.0,58.0,30.07,South,184,2.0,5.0,97,0.00,,,0.21,,2013-07-13 04:32:00,
2013-07-13 00:43:00,59.0,58.0,30.07,South,184,2.0,5.0,97,0.00,,,0.21,,2013-07-13 04:43:00,
2013-07-13 00:52:00,59.0,58.0,30.07,South,190,3.0,7.0,97,0.00,,,0.21,,2013-07-13 04:52:00,
2013-07-13 01:01:00,59.0,58.0,30.09,South,190,2.0,5.0,97,0.00,,,0.21,,2013-07-13 05:01:00,
2013-07-13 01:11:00,59.0,58.0,30.09,South,190,2.0,5.0,97,0.00,,,0.21,,2013-07-13 05:11:00,
2013-07-13 01:22:00,60.0,59.0,30.08,South,190,2.0,5.0,97,0.00,,,0.21,,2013-07-13 05:22:00,
2013-07-13 01:42:00,60.0,59.0,30.07,South,186,2.0,6.0,97,0.00,,,0.21,,2013-07-13 05:42:00,
2013-07-13 01:52:00,60.0,59.0,30.07,South,186,2.0,6.0,97,0.00,,,0.21,,2013-07-13 05:52:00,
2013-07-13 02:22:00,60.0,59.0,30.08,South,186,0.0,2.0,97,0.00,,,0.21,,2013-07-13 06:22:00,
2013-07-13 02:32:00,59.0,58.0,30.07,South,186,1.0,2.0,97,0.00,,,0.21,,2013-07-13 06:32:00,
2013-07-13 02:52:00,59.0,58.0,30.07,South,186,1.0,4.0,97,0.00,,,0.21,,2013-07-13 06:52:00,
2013-07-13 03:02:00,59.0,58.0,30.07,South,186,1.0,4.0,97,0.00,,,0.21,,2013-07-13 07:02:00,
2013-07-13 03:22:00,60.0,59.0,30.08,South,186,0.0,2.0,97,0.00,,,0.21,,2013-07-13 07:22:00,
2013-07-13 03:33:00,60.0,59.0,30.07,South,186,2.0,4.0,97,0.00,,,0.21,,2013-07-13 07:33:00,
2013-07-13 03:44:00,60.0,59.0,30.07,South,188,2.0,7.0,97,0.00,,,0.21,,2013-07-13 07:44:00,
2013-07-13 03:53:00,60.0,59.0,30.07,South,188,2.0,7.0,97,0.00,,,0.21,,2013-07-13 07:53:00,
2013-07-13 04:02:00,60.0,59.0,30.07,South,186,3.0,7.0,97,0.00,,,0.21,,2013-07-13 08:02:00,
2013-07-13 04:22:00,60.0,59.0,30.07,South,177,3.0,10.0,97,0.00,,,0.21,,2013-07-13 08:22:00,
2013-07-13 04:33:00,60.0,59.0,30.07,South,188,2.0,10.0,97,0.00,,,0.21,,2013-07-13 08:33:00,
2013-07-13 04:43:00,60.0,59.0,30.06,South,190,3.0,7.0,97,0.00,,,0.21,,2013-07-13 08:43:00,
2013-07-13 04:52:00,60.0,59.0,30.06,South,190,3.0,7.0,97,0.00,,,0.21,,2013-07-13 08:52:00,
2013-07-13 05:02:00,60.0,59.0,30.06,South,184,4.0,9.0,97,0.00,,,0.21,,2013-07-13 09:02:00,
2013-07-13 05:22:00,60.0,59.0,30.06,South,190,2.0,8.0,97,0.00,,,0.21,,2013-07-13 09:22:00,
2013-07-13 05:33:00,60.0,59.0,30.06,South,184,2.0,10.0,97,0.00,,,0.21,,2013-07-13 09:33:00,
2013-07-13 05:43:00,60.0,59.0,30.07,South,183,1.0,11.0,97,0.00,,,0.21,,2013-07-13 09:43:00,
2013-07-13 05:53:00,60.0,59.0,30.07,South,183,1.0,11.0,97,0.00,,,0.21,,2013-07-13 09:53:00,
2013-07-13 06:01:00,60.0,59.0,30.07,South,180,3.0,6.0,97,0.00,,,0.21,,2013-07-13 10:01:00,
2013-07-13 06:11:00,60.0,59.0,30.07,South,180,3.0,6.0,97,0.00,,,0.21,,2013-07-13 10:11:00,
2013-07-13 06:22:00,60.0,59.0,30.08,South,181,2.0,7.0,97,0.00,,,0.21,,2013-07-13 10:22:00,
2013-07-13 06:32:00,61.0,60.0,30.08,South,178,2.0,7.0,97,0.00,,,0.21,,2013-07-13 10:32:00,
2013-07-13 06:52:00,60.0,59.0,30.09,South,183,2.0,9.0,97,0.00,,,0.21,,2013-07-13 10:52:00,
2013-07-13 07:02:00,61.0,60.0,30.09,South,184,3.0,9.0,97,0.00,,,0.21,,2013-07-13 11:02:00,
2013-07-13 07:22:00,61.0,60.0,30.09,South,187,3.0,7.0,97,0.00,,,0.21,,2013-07-13 11:22:00,
2013-07-13 07:32:00,61.0,60.0,30.09,South,189,2.0,7.0,97,0.00,,,0.20,,2013-07-13 11:32:00,
2013-07-13 07:52:00,61.0,60.0,30.10,South,188,2.0,7.0,97,0.00,,,0.20,,2013-07-13 11:52:00,
2013-07-13 08:22:00,61.0,60.0,30.10,South,189,3.0,9.0,97,0.00,,,0.20,,2013-07-13 12:22:00,
2013-07-13 08:32:00,61.0,60.0,30.11,South,190,3.0,9.0,97,0.00,,,0.20,,2013-07-13 12:32:00,
2013-07-13 08:43:00,61.0,60.0,30.11,South,191,4.0,7.0,97,0.00,,,0.20,,2013-07-13 12:43:00,
2013-07-13 08:52:00,61.0,60.0,30.11,South,191,4.0,7.0,97,0.00,,,0.20,,2013-07-13 12:52:00,
2013-07-13 09:01:00,61.0,60.0,30.11,South,191,4.0,7.0,97,0.00,,,0.20,,2013-07-13 13:01:00,
2013-07-13 09:12:00,61.0,60.0,30.11,South,191,2.0,7.0,97,0.00,,,0.20,,2013-07-13 13:12:00,
2013-07-13 09:22:00,61.0,60.0,30.12,South,181,3.0,9.0,97,0.00,,,0.20,,2013-07-13 13:22:00,
2013-07-13 09:43:00,61.0,60.0,30.13,South,180,2.0,8.0,97,0.00,,,0.20,,2013-07-13 13:43:00,
2013-07-13 09:53:00,61.0,60.0,30.13,South,180,2.0,8.0,97,0.00,,,0.20,,2013-07-13 13:53:00,
2013-07-13 10:22:00,61.0,60.0,30.14,South,183,3.0,6.0,97,0.00,,,0.20,,2013-07-13 14:22:00,
2013-07-13 10:32:00,62.0,61.0,30.14,South,184,2.0,8.0,97,0.00,,,0.20,,2013-07-13 14:32:00,
2013-07-13 10:53:00,62.0,61.0,30.14,South,184,2.0,5.0,97,0.00,,,0.20,,2013-07-13 14:53:00,
2013-07-13 11:02:00,62.0,61.0,30.14,South,184,2.0,7.0,97,0.02,,,0.22,,2013-07-13 15:02:00,
2013-07-13 11:22:00,62.0,61.0,30.15,South,184,2.0,7.0,97,0.02,,,0.22,,2013-07-13 15:22:00,
2013-07-13 11:33:00,62.0,61.0,30.15,South,189,2.0,7.0,97,0.02,,,0.22,,2013-07-13 15:33:00,
2013-07-13 11:43:00,62.0,61.0,30.16,South,181,2.0,6.0,97,0.02,,,0.22,,2013-07-13 15:43:00,
2013-07-13 11:53:00,62.0,61.0,30.16,South,181,2.0,6.0,97,0.02,,,0.22,,2013-07-13 15:53:00,
2013-07-13 12:02:00,62.0,61.0,30.16,South,181,2.0,5.0,97,0.04,,,0.26,,2013-07-13 16:02:00,
2013-07-13 12:11:00,63.0,62.0,30.16,South,191,2.0,6.0,97,0.04,,,0.26,,2013-07-13 16:11:00,
2013-07-13 12:22:00,63.0,62.0,30.16,South,191,2.0,6.0,97,0.04,,,0.26,,2013-07-13 16:22:00,
2013-07-13 12:33:00,63.0,62.0,30.16,South,190,2.0,6.0,97,0.04,,,0.26,,2013-07-13 16:33:00,
2013-07-13 12:43:00,63.0,62.0,30.16,South,188,3.0,7.0,97,0.05,,,0.27,,2013-07-13 16:43:00,
2013-07-13 12:53:00,63.0,62.0,30.16,South,188,3.0,7.0,97,0.05,,,0.27,,2013-07-13 16:53:00,
2013-07-13 13:01:00,63.0,62.0,30.16,South,186,2.0,6.0,97,0.01,,,0.27,,2013-07-13 17:01:00,
2013-07-13 13:12:00,63.0,62.0,30.16,South,184,3.0,8.0,97,0.01,,,0.27,,2013-07-13 17:12:00,
2013-07-13 13:22:00,63.0,62.0,30.16,South,184,3.0,8.0,97,0.01,,,0.27,,2013-07-13 17:22:00,
2013-07-13 13:33:00,64.0,63.0,30.16,South,184,4.0,8.0,97,0.01,,,0.27,,2013-07-13 17:33:00,
2013-07-13 13:43:00,64.0,63.0,30.16,South,187,2.0,6.0,97,0.00,,,0.27,,2013-07-13 17:43:00,
2013-07-13 13:52:00,64.0,63.0,30.16,South,187,2.0,6.0,97,0.00,,,0.27,,2013-07-13 17:52:00,
2013-07-13 14:01:00,64.0,63.0,30.16,SSW,193,2.0,8.0,97,0.00,,,0.27,,2013-07-13 18:01:00,
2013-07-13 14:22:00,64.0,63.0,30.15,South,183,2.0,8.0,97,0.01,,,0.28,,2013-07-13 18:22:00,
2013-07-13 14:32:00,64.0,63.0,30.15,South,181,2.0,6.0,97,0.01,,,0.28,,2013-07-13 18:32:00,
2013-07-13 14:44:00,64.0,63.0,30.15,South,184,2.0,11.0,97,0.01,,,0.28,,2013-07-13 18:44:00,
2013-07-13 14:53:00,64.0,63.0,30.15,South,184,2.0,11.0,97,0.01,,,0.28,,2013-07-13 18:53:00,
2013-07-13 15:02:00,65.0,64.0,30.15,South,184,0.0,5.0,97,0.01,,,0.28,,2013-07-13 19:02:00,
2013-07-13 15:11:00,64.0,63.0,30.15,South,184,2.0,5.0,97,0.00,,,0.28,,2013-07-13 19:11:00,
2013-07-13 15:22:00,64.0,63.0,30.15,South,184,2.0,5.0,97,0.00,,,0.28,,2013-07-13 19:22:00,
2013-07-13 15:32:00,64.0,63.0,30.15,South,184,2.0,4.0,97,0.00,,,0.28,,2013-07-13 19:32:00,
2013-07-13 15:44:00,65.0,64.0,30.15,South,184,2.0,6.0,97,0.00,,,0.28,,2013-07-13 19:44:00,
2013-07-13 15:52:00,65.0,64.0,30.15,South,184,2.0,6.0,97,0.00,,,0.28,,2013-07-13 19:52:00,
2013-07-13 16:01:00,65.0,64.0,30.15,South,184,2.0,6.0,97,0.00,,,0.28,,2013-07-13 20:01:00,
2013-07-13 16:11:00,65.0,64.0,30.15,South,184,2.0,5.0,97,0.00,,,0.28,,2013-07-13 20:11:00,
2013-07-13 16:22:00,65.0,64.0,30.15,South,184,2.0,5.0,97,0.00,,,0.28,,2013-07-13 20:22:00,
2013-07-13 16:33:00,65.0,64.0,30.15,South,186,2.0,5.0,97,0.00,,,0.28,,2013-07-13 20:33:00,
2013-07-13 16:43:00,65.0,64.0,30.14,South,184,2.0,5.0,97,0.00,,,0.28,,2013-07-13 20:43:00,
2013-07-13 16:52:00,65.0,64.0,30.14,South,184,2.0,5.0,97,0.00,,,0.28,,2013-07-13 20:52:00,
2013-07-13 17:02:00,65.0,64.0,30.14,South,184,1.0,5.0,97,0.00,,,0.28,,2013-07-13 21:02:00,
2013-07-13 17:12:00,66.0,65.0,30.14,South,184,2.0,5.0,97,0.00,,,0.28,,2013-07-13 21:12:00,
2013-07-13 17:22:00,66.0,65.0,30.14,South,184,2.0,5.0,97,0.00,,,0.28,,2013-07-13 21:22:00,
2013-07-13 17:32:00,66.0,65.0,30.14,South,184,2.0,5.0,97,0.00,,,0.28,,2013-07-13 21:32:00,
2013-07-13 17:43:00,66.0,65.0,30.14,South,181,1.0,7.0,97,0.00,,,0.28,,2013-07-13 21:43:00,
2013-07-13 17:53:00,66.0,65.0,30.14,South,181,1.0,7.0,97,0.00,,,0.28,,2013-07-13 21:53:00,
2013-07-13 18:01:00,66.0,65.0,30.13,South,182,2.0,7.0,97,0.00,,,0.28,,2013-07-13 22:01:00,
2013-07-13 18:12:00,66.0,65.0,30.13,South,184,2.0,5.0,97,0.00,,,0.28,,2013-07-13 22:12:00,
2013-07-13 18:22:00,66.0,65.0,30.13,South,184,2.0,5.0,97,0.00,,,0.28,,2013-07-13 22:22:00,
2013-07-13 18:32:00,66.0,65.0,30.13,South,184,3.0,10.0,97,0.00,,,0.12,,2013-07-13 22:32:00,
2013-07-13 18:43:00,65.0,64.0,30.14,South,184,1.0,7.0,97,0.00,,,0.12,,2013-07-13 22:43:00,
2013-07-13 18:53:00,65.0,64.0,30.14,South,184,1.0,7.0,97,0.00,,,0.12,,2013-07-13 22:53:00,
2013-07-13 19:02:00,65.0,64.0,30.14,South,183,2.0,5.0,97,0.00,,,0.12,,2013-07-13 23:02:00,
2013-07-13 19:11:00,65.0,64.0,30.14,South,179,3.0,8.0,97,0.00,,,0.12,,2013-07-13 23:11:00,
2013-07-13 19:22:00,65.0,64.0,30.14,South,179,3.0,8.0,97,0.00,,,0.12,,2013-07-13 23:22:00,
2013-07-13 19:32:00,65.0,64.0,30.14,South,183,2.0,5.0,97,0.00,,,0.12,,2013-07-13 23:32:00,
2013-07-13 19:42:00,65.0,64.0,30.14,South,181,1.0,5.0,97,0.00,,,0.12,,2013-07-13 23:42:00,
2013-07-13 19:53:00,65.0,64.0,30.14,South,181,1.0,5.0,97,0.00,,,0.12,,2013-07-13 23:53:00,
2013-07-13 20:01:00,65.0,64.0,30.15,South,186,3.0,7.0,97,0.00,,,0.12,,2013-07-14 00:01:00,
2013-07-13 20:12:00,65.0,64.0,30.15,South,189,3.0,7.0,97,0.00,,,0.12,,2013-07-14 00:12:00,
2013-07-13 20:21:00,65.0,64.0,30.15,South,189,3.0,7.0,97,0.00,,,0.12,,2013-07-14 00:21:00,
2013-07-13 20:33:00,65.0,64.0,30.15,South,186,4.0,8.0,97,0.00,,,0.10,,2013-07-14 00:33:00,
2013-07-13 20:42:00,65.0,64.0,30.15,South,186,3.0,11.0,97,0.00,,,0.10,,2013-07-14 00:42:00,
2013-07-13 20:53:00,65.0,64.0,30.15,South,186,3.0,11.0,97,0.00,,,0.10,,2013-07-14 00:53:00,
2013-07-13 21:02:00,65.0,64.0,30.15,South,184,3.0,8.0,97,0.00,,,0.10,,2013-07-14 01:02:00,
2013-07-13 21:11:00,65.0,64.0,30.15,SSW,194,3.0,8.0,97,0.00,,,0.10,,2013-07-14 01:11:00,
2013-07-13 21:22:00,65.0,64.0,30.15,SSW,194,3.0,8.0,97,0.00,,,0.10,,2013-07-14 01:22:00,
2013-07-13 21:32:00,65.0,64.0,30.16,South,186,3.0,8.0,98,0.00,,,0.10,,2013-07-14 01:32:00,
2013-07-13 21:43:00,65.0,64.0,30.15,South,189,2.0,9.0,98,0.00,,,0.10,,2013-07-14 01:43:00,
2013-07-13 21:52:00,65.0,64.0,30.15,South,189,2.0,9.0,98,0.00,,,0.10,,2013-07-14 01:52:00,
2013-07-13 22:02:00,65.0,64.0,30.16,South,189,2.0,9.0,98,0.00,,,0.10,,2013-07-14 02:02:00,
2013-07-13 22:11:00,65.0,64.0,30.16,South,188,3.0,11.0,98,0.00,,,0.10,,2013-07-14 02:11:00,
2013-07-13 22:22:00,65.0,64.0,30.16,South,188,3.0,11.0,98,0.00,,,0.10,,2013-07-14 02:22:00,
2013-07-13 22:32:00,65.0,64.0,30.16,South,184,4.0,11.0,98,0.00,,,0.09,,2013-07-14 02:32:00,
2013-07-13 22:43:00,65.0,64.0,30.16,South,177,3.0,6.0,98,0.00,,,0.09,,2013-07-14 02:43:00,
2013-07-13 22:53:00,65.0,64.0,30.16,South,177,3.0,6.0,98,0.00,,,0.09,,2013-07-14 02:53:00,
2013-07-13 23:02:00,65.0,64.0,30.16,South,186,2.0,11.0,98,0.00,,,0.09,,2013-07-14 03:02:00,
2013-07-13 23:11:00,65.0,64.0,30.16,South,183,2.0,8.0,98,0.00,,,0.09,,2013-07-14 03:11:00,
2013-07-13 23:22:00,65.0,64.0,30.16,South,183,2.0,8.0,98,0.00,,,0.09,,2013-07-14 03:22:00,
2013-07-13 23:32:00,65.0,64.0,30.15,South,188,2.0,8.0,98,0.00,,,0.08,,2013-07-14 03:32:00,
2013-07-13 23:43:00,65.0,64.0,30.16,South,190,3.0,9.0,98,0.00,,,0.08,,2013-07-14 03:43:00,
2013-07-13 23:53:00,65.0,64.0,30.16,South,190,3.0,9.0,98,0.00,,,0.08,,2013-07-14 03:53:00,